Location: Unspecified
(0.0000°N, 0.0000°E)
Time: 07:53:56
(UTC+00:00)

GALILEO-FM4 - Visible Passes

Search period start: 30 April 2025 00:00
Search period end: 10 May 2025 00:00
Orbit: 23921 x 23925 km, 55.5° (Epoch: 11 February)

Date Brightness Start Highest point End Pass type
(mag) Time Alt. Az. Time Alt. Az. Time Alt. Az.
01 May ? 01:28:05 10° NNW 05:22:17 82° W 14:10:59 10° ENE visible
02 May ? 14:14:27 10° SSW 17:48:12 71° W 03:16:46 10° SE visible
04 May ? 02:57:35 10° NNW 06:13:53 61° W 16:07:30 10° NE visible
05 May ? 15:39:59 10° SSW 18:39:33 51° W 04:52:50 10° SSE visible
07 May ? 04:23:10 10° NNW 07:04:50 41° W 17:35:54 10° NNE visible
08 May ? 17:08:57 10° SW 19:29:49 32° W 06:18:18 10° SSE daylight
